Other Public Products
Issued by NWS Grand Forks, ND

Home | Current Version | Previous Version | Graphics & Text | Print | Product List | Glossary On
Versions: 1 2 3 4 5 6 7 8 9 10 11 12 13 14 15 16 17 18 19 20 21 22 23 24 25 26 27 28 29 30 31 32 33 34 35 36 37 38 39 40 41 42 43 44 45 46 47 48 49 50
000
FPUS83 KFGF 181610
OPUFGF
PRAIRIE TO PINES WEATHER ROUNDUP
NATIONAL WEATHER SERVICE EASTERN NORTH DAKOTA/GRAND FORKS ND
1000 AM CST SUN FEB 18 2018

 **SATELLITE DATA USED TO AUGMENT SKY COVER AT AUTOMATED STATIONS**
 *****  WEATHER ACROSS EASTERN NORTH DAKOTA  *****

CITY           SKY/WX    TMP DP  RH WIND       PRES   REMARKS
GRAND FORKS    LGT SNOW  13   9  84 NE13      29.85F VSB 3/4 WCI  -2
GRND FORKS AFB CLOUDY    10   7  85 NE14      29.86R BLWGSNOWWCI  -5
GRND FORKS NWS   N/A     11  10  94 NE6       29.82S WCI   2
BUXTON           N/A     13  13  99 NE14        N/A  WCI  -2
DEVILS LAKE    LGT SNOW   9   3  78 NE16      29.84R FOG     WCI  -9
FARGO          LGT SNOW  20  17  88 NE14      29.70F FOG     WCI   7
WAHPETON ARPT  FAIR      27  16  63 E10       29.63F WCI  17
$$

 *****  WEATHER ACROSS CENTRAL AND WESTERN NORTH DAKOTA  *****

CITY           SKY/WX    TMP DP  RH WIND       PRES   REMARKS
JAMESTOWN      LGT SNOW  14  11  87 NE22      29.68S VSB 3/4 WCI  -4
BISMARCK       LGT SNOW  12   9  87 NE14G28   29.71F FOG     WCI  -3
MINOT          LGT SNOW   8   2  76 N15       29.86R WCI  -9
MINOT AFB      LGT SNOW   6   1  81 N15       29.85R WCI -12
GARRISON         N/A      7   2  80 NE16      29.81R WCI -11
WILLISTON      LGT SNOW   9   3  77 NE10      29.88R WCI  -5
DICKINSON      LGT SNOW   7   2  80 N18       29.71R WCI -12
HETTINGER      LGT SNOW   9   5  84 N20       29.66R FOG     WCI -10
$$

 *****  OTHER OBSERVATIONS NORTHEAST NORTH DAKOTA  *****

CITY           SKY/WX    TMP DP  RH WIND       PRES   REMARKS
WALHALLA       LGT SNOW   7   7 100 N9        29.94R WCI  -7
LANGDON        NOT AVBL
CAVALIER       LGT SNOW   9   7  92 N7        29.93R WCI  -3
GRAFTON        NOT AVBL
CANDO          LGT SNOW   9   5  85 NE12      29.89R WCI  -6
FORT TOTTEN      N/A     10   6  84 NE6       29.95S WCI   0
ROLLA          LGT SNOW   5   1  85 N12       29.87R WCI -11
RUGBY          NOT AVBL
 ***** THE ABOVE OBSERVATIONS ARE NON NWS ARE NOT QUALITY
        CONTROLLED AND MAY MIS-REPORT RAIN FOR SNOW...
$$

 *****  OTHER OBSERVATIONS SOUTHEAST NORTH DAKOTA *****

CITY           SKY/WX    TMP DP  RH WIND       PRES   REMARKS
COOPERSTOWN    LGT SNOW  10   9  92 NE20      29.76R WCI  -8
VALLEY CITY    NOT AVBL
OAKES            N/A     19  16  86 NE22G29   29.59F WCI   3
GWINNER          N/A     21  18  86 NE16      29.61S WCI   7
SHEYENNE NWR     N/A     20  16  85 NE13      29.95S WCI   7
BUFFALO          N/A     15  12  91 S21         N/A  WCI  -3
WYNDMERE       NOT AVBL
 ***** THE ABOVE OBSERVATIONS ARE NON NWS ARE NOT QUALITY
       CONTROLLED AND MAY MIS-REPORT RAIN FOR SNOW...
$$

  *****  WEATHER ACROSS NORTHERN MINNESOTA  *****

CITY           SKY/WX    TMP DP  RH WIND       PRES   REMARKS
FLAG ISLAND    FAIR       3  -8  60 CALM      29.93S
WARROAD        LGT SNOW   7   1  78 NE7       29.91F WCI  -5
ROSEAU         NOT AVBL
HALLOCK        LGT SNOW   9   7  92 NE7       29.92R WCI  -3
THF RVR FALLS  SNOW      12   8  84 NE13      29.84S VSB 1/2 WCI  -3
HALSTAD        NOT AVBL
FOSSTON        SNOW      12   9  85 NE8       29.79F VSB 1/2 WCI   1
BAUDETTE       LGT SNOW   5   1  83 E9        29.88F VSB 1   WCI  -9
WASKISH        LGT SNOW  10   9  92 E8        29.87R VSB 3/4 WCI  -1
CROOKSTON      SNOW      12  10  92 NE12      29.84F VSB 1/2 WCI  -2
$$
  *****  WEATHER ACROSS CENTRAL AND WEST MINNESOTA  *****

CITY           SKY/WX    TMP DP  RH WIND       PRES   REMARKS
BEMIDJI        SNOW      12   9  87 E9        29.79F VSB 1/4 WCI   0
PARK RAPIDS    SNOW      16  12  84 E15G22    29.71F VSB 1/2 WCI   1
WADENA         FAIR      18  10  73 E10       29.68F WCI   6
DETROIT LAKES  LGT SNOW  21  16  79 E15       29.68F WCI   8
MOORHEAD       CLOUDY    19  16  86 NE13      29.70F WCI   7
FERGUS FALLS   FAIR      25  12  58 E13G20    29.63F WCI  13
ELBOW LAKE     PTSUNNY   24  15  68 SE18G24   29.61F WCI  10
MORRIS MN      FAIR      28  19  69 SE18G25   29.57F WCI  16
STAPLES        FAIR      19   9  63 E7        29.70F WCI  10
WHEATON        FAIR      28  18  64 E20G25    29.59F WCI  15
$$
  *****  WEATHER ELSEWHERE ACROSS MINNESOTA  *****

CITY           SKY/WX    TMP DP  RH WIND       PRES   REMARKS
DULUTH         SNOW      16  12  84 SE16      29.88F VSB 1/4 WCI   1
INTRNTL FALLS  SNOW       6   2  83 E8        29.91F VSB 1/2 WCI  -7
ELY            SNOW      10   7  85 E6        29.92F VSB 1/2 WCI   1
CLOQUET        CLOUDY    14  10  85 E10       29.86F WCI   1
BRAINERD       CLOUDY    20   7  57 E8G18     29.75F WCI  10
HIBBING        SNOW      11   8  88 SE7       29.88R VSB 1/4 WCI   0
ALEXANDRIA     CLOUDY    24  13  62 E13       29.63F WCI  12
SAINT CLOUD    CLOUDY    26  14  60 SE17G25   29.70F WCI  13
MINNEAPOLIS    CLOUDY    26  19  74 SE18      29.81F WCI  13
$$

  *****  WEATHER ACROSS SOUTH DAKOTA  *****

CITY           SKY/WX    TMP DP  RH WIND       PRES   REMARKS
SIOUX FALLS    CLOUDY    39  27  62 S23G35    29.53F
BROOKINGS      FAIR      36  24  62 S18G31    29.51F
WATERTOWN      FAIR      34  24  67 S13       29.47F WCI  25
HURON          FAIR      36  25  64 S9        29.46S
SISSETON         N/A     28  22  78 SE12      29.56F WCI  18
ABERDEEN       CLOUDY    29  23  78 N12       29.52F WCI  19
MITCHELL       FAIR      41  26  55 SW10      29.50R
PIERRE         FAIR      25  22  88 NW21      29.50R WCI  11
MOBRIDGE       CLOUDY    22  17  81 N16       29.54R WCI   8
RAPID CITY     CLOUDY    29  26  89 N21       29.53R WCI  16
$$

  *****  SOME WEATHER IN NEARBY STATES *****

CITY           SKY/WX    TMP DP  RH WIND       PRES   REMARKS
GLASGOW MT     CLOUDY     5  -1  76 NW9       29.91R WCI  -9
GREAT FALLS MT CLOUDY     1  -3  83 N12       29.88R WCI -16
CHEYENNE WY    FAIR      52   9  17 W28G37    29.52F
SCOTTSBLUFF NE FAIR      54  16  22 SW14      29.49F
OMAHA NE       PTSUNNY   42  30  62 S16G26    29.81S
DES MOINES IA  PTSUNNY   41  31  67 S22       29.92F
DAVENPORT IA   FAIR      32  26  78 SE20      30.16F WCI  20
CHICAGO IL     PTSUNNY   27  23  85 S9        30.26R WCI  18
EAU CLAIRE WI  CLOUDY    26  14  60 SE16G24   29.94F WCI  14
LA CROSSE WI   FAIR      32  23  69 S14G25    30.01F WCI  22
$$

  *****  SOME NATIONAL WEATHER *****

CITY           SKY/WX    TMP DP  RH WIND       PRES   REMARKS
LA GUARDIA NY  FAIR      41  21  44 N8G20     30.30R
RALEIGH NC     FAIR      54  38  54 VRB7      30.37R
ATLANTA GA     FAIR      58  46  64 CALM      30.28R
NEW ORLEANS LA CLOUDY    71  67  87 CALM      30.22S FOG
OKLAHOMA CITY  CLOUDY    45  43  93 S18       30.05F
ALBUQUERQUE NM PTSUNNY   42  40  92 S5        30.02S
SALT LAKE CITY CLOUDY    52  15  23 S23G38    29.57F
LOS ANGELES CA FAIR      56  44  64 E3        30.00R
BOISE ID       FAIR      36  27  69 CALM      29.63R
SEATTLE WA     CLOUDY    35  29  78 S9        29.64R
$$

*** WEATHER ACROSS MANITOBA...SASKATCHEWAN AND ONTARIO ***
                ***ONTARIO***

CITY           SKY/WX    TMP DP  RH WIND       PRES   REMARKS
GERALDTON      PTSUNNY    3  -8  60 CALM      30.06R
THUNDER BAY    CLOUDY     7  -6  56 CALM      30.12R
SIOUX LOOKOUT  CLOUDY    -2  -9  71 S7        29.99R WCI -16
TORONTO        PTSUNNY   34  21  60 W10G24    30.30R
BIG TROUT LK   SUNNY    -22 -29  69 NW6       30.04R WCI -38
PICKLE LAKE    PTSUNNY   -6 -13  71 NW3       29.98R
DRYDEN         CLOUDY    -2  -8  78 NE3       29.95F
KENORA         CLOUDY     1  -8  66 SE3       29.92S
$$
                *** MANITOBA***

CITY           SKY/WX    TMP DP  RH WIND       PRES   REMARKS
BRANDON        CLOUDY     5  -2  72 E5        29.95R WCI  -4
DAUPHIN        MOSUNNY    1  -4  78 W7        30.01R WCI -11
ISLAND LAKE    SUNNY    -22 -29  69 W3        30.06R
PILOT MOUND      N/A      5   0  78 N7          N/A  WCI  -7
THE PAS        MOSUNNY  -13 -22  64 E3        30.05R
THOMPSON       CRYSTALS -31 -38  68 NW7       30.08R WCI -50
WINNIPEG       CLOUDY     3  -2  78 N7        29.98R WCI  -9
LYNN LAKE      SUNNY    -31 -38  68 NW9       30.03R WCI -53
CHURCHILL      SUNNY    -40 -51  54 NW16      30.02R WCI -72
GILLAM         SUNNY    -36 -45  61 W12       30.07R WCI -63
$$
                ***SASKATCHEWAN***

CITY           SKY/WX    TMP DP  RH WIND       PRES   REMARKS
ESTEVAN        LGT SNOW   7   1  78 N8        29.91R WCI  -6
KINDERSLEY     PTSUNNY    0  -8  71 NW7       29.98R WCI -13
LLOYDMINSTER   LGT SNOW  -2  -6  84 W10       29.97R WCI -19
PRINCE ALBERT  PTSUNNY   -6 -13  71 SW2       30.03R
REGINA         CLOUDY     1  -2  85 NW5       29.97R WCI  -8
YORKTON        SUNNY     -6 -11  77 NW5       29.96R W


USA.gov is the U.S. government's official web portal to all federal, state and local government web resources and services.